| time (UTC) | temp C | wind direction | speed KPH | gust KPH | rain 1hr cm | rain 24hr cm | rain mn cm | humidity % | barometer mb |
| 20260503193039 | 16 | 211 | 11.3 | 22.5 | 0.00 | 0.00 | 0.00 | 35 | 1010.1 |
| 20260503192535 | 16 | 230 | 6.4 | 32.2 | 0.00 | 0.00 | 0.00 | 36 | 1010.0 |
| 20260503192031 | 17 | 273 | 11.3 | 24.1 | 0.00 | 0.00 | 0.00 | 34 | 1010.2 |
| 20260503191528 | 17 | 139 | 4.8 | 8.0 | 0.00 | 0.00 | 0.00 | 36 | 1010.3 |
| 20260503191025 | 17 | 264 | 4.8 | 14.5 | 0.00 | 0.00 | 0.00 | 35 | 1010.4 |
| 20260503190522 | 17 | 10 | 8.0 | 32.2 | 0.00 | 0.00 | 0.00 | 34 | 1010.5 |
| 20260503190019 | 17 | 215 | 9.7 | 22.5 | 0.00 | 0.00 | 0.00 | 35 | 1010.5 |
| 20260503185515 | 17 | 324 | 8.0 | 24.1 | 0.00 | 0.00 | 0.00 | 34 | 1010.6 |
| 20260503185015 | 17 | 246 | 22.5 | 33.8 | 0.00 | 0.00 | 0.00 | 33 | 1010.6 |
| 20260503184512 | 16 | 276 | 6.4 | 17.7 | 0.00 | 0.00 | 0.00 | 35 | 1010.7 |
| 20260503184008 | 16 | 203 | 6.4 | 24.1 | 0.00 | 0.00 | 0.00 | 34 | 1010.6 |
| 20260503183505 | 16 | 141 | 16.1 | 35.4 | 0.00 | 0.00 | 0.00 | 34 | 1010.6 |
| 20260503183002 | 16 | 297 | 14.5 | 35.4 | 0.00 | 0.00 | 0.00 | 34 | 1010.7 |
| 20260503182501 | 17 | 290 | 19.3 | 29.0 | 0.00 | 0.00 | 0.00 | 34 | 1010.7 |
| 20260503181958 | 16 | 186 | 14.5 | 16.1 | 0.00 | 0.00 | 0.00 | 34 | 1011.1 |
| 20260503181455 | 16 | 303 | 20.9 | 27.4 | 0.00 | 0.00 | 0.00 | 33 | 1011.1 |
| 20260503180950 | 17 | 268 | 9.7 | 33.8 | 0.00 | 0.00 | 0.00 | 34 | 1011.0 |
| 20260503180449 | 17 | 110 | 4.8 | 24.1 | 0.00 | 0.00 | 0.00 | 36 | 1011.0 |
| 20260503175945 | 16 | 275 | 12.9 | 17.7 | 0.00 | 0.00 | 0.00 | 35 | 1011.3 |
| 20260503175444 | 16 | 100 | 6.4 | 14.5 | 0.00 | 0.00 | 0.00 | 36 | 1011.3 |
| 20260503174939 | 15 | 28 | 8.0 | 35.4 | 0.00 | 0.00 | 0.00 | 36 | 1011.4 |
| 20260503174437 | 15 | 333 | 14.5 | 24.1 | 0.00 | 0.00 | 0.00 | 38 | 1011.4 |
| 20260503173932 | 16 | 234 | 6.4 | 14.5 | 0.00 | 0.00 | 0.00 | 40 | 1011.4 |
| 20260503173428 | 15 | 220 | 12.9 | 16.1 | 0.00 | 0.00 | 0.00 | 38 | 1011.7 |
| 20260503172925 | 15 | 261 | 9.7 | 20.9 | 0.00 | 0.00 | 0.00 | 39 | 1011.8 |
| 20260503172423 | 15 | 313 | 8.0 | 27.4 | 0.00 | 0.00 | 0.00 | 39 | 1011.8 |
| 20260503171919 | 15 | 188 | 9.7 | 20.9 | 0.00 | 0.00 | 0.00 | 39 | 1011.7 |
| 20260503171416 | 15 | 289 | 8.0 | 29.0 | 0.00 | 0.00 | 0.00 | 39 | 1012.0 |
| 20260503170913 | 15 | 272 | 8.0 | 11.3 | 0.00 | 0.00 | 0.00 | 41 | 1011.9 |
| 20260503170409 | 15 | 290 | 9.7 | 14.5 | 0.00 | 0.00 | 0.00 | 39 | 1011.8 |
| 20260503150802 | 14 | 234 | 12.9 | 14.5 | 0.00 | 0.00 | 0.00 | 39 | 1013.1 |
| 20260503150257 | 15 | 320 | 14.5 | 17.7 | 0.00 | 0.00 | 0.00 | 38 | 1013.1 |
| 20260503140222 | 12 | 195 | 14.5 | 24.1 | 0.00 | 0.00 | 0.00 | 43 | 1013.3 |
| 20260503131151 | 10 | 279 | 6.4 | 9.7 | 0.00 | 0.00 | 0.00 | 49 | 1013.5 |
| 20260503130649 | 10 | 186 | 8.0 | 11.3 | 0.00 | 0.00 | 0.00 | 50 | 1013.6 |
| 20260503130147 | 9 | 264 | 3.2 | 11.3 | 0.00 | 0.00 | 0.00 | 51 | 1013.5 |
| 20260503120112 | 7 | 276 | 4.8 | 11.3 | 0.00 | 0.00 | 0.00 | 54 | 1013.9 |
| 20260503110539 | 5 | 153 | 3.2 | 8.0 | 0.00 | 0.00 | 0.00 | 58 | 1013.8 |
| 20260503090420 | 3 | 286 | 3.2 | 3.2 | 0.00 | 0.00 | 0.00 | 57 | 1014.6 |
| 20260503081347 | 2 | 306 | 0.0 | 1.6 | 0.00 | 0.00 | 0.00 | 59 | 1014.9 |
| 20260503080843 | 2 | 308 | 0.0 | 0.0 | 0.00 | 0.00 | 0.00 | 59 | 1014.8 |
| 20260503080340 | 2 | 320 | 0.0 | 3.2 | 0.00 | 0.00 | 0.00 | 59 | 1014.5 |
| 20260503072817 | 2 | 300 | 0.0 | 1.6 | 0.00 | 0.00 | 0.00 | 62 | 1014.8 |
| 20260503072314 | 2 | 289 | 3.2 | 4.8 | 0.00 | 0.00 | 0.00 | 62 | 1015.0 |
| 20260503071810 | 2 | 284 | 1.6 | 1.6 | 0.00 | 0.00 | 0.00 | 62 | 1015.1 |
| 20260503071308 | 1 | 302 | 0.0 | 3.2 | 0.00 | 0.00 | 0.00 | 63 | 1014.9 |
| 20260503070803 | 2 | 302 | 0.0 | 3.2 | 0.00 | 0.00 | 0.00 | 63 | 1014.9 |
| 20260503070302 | 2 | 312 | 0.0 | 1.6 | 0.00 | 0.00 | 0.00 | 62 | 1015.0 |
| 20260503060221 | 2 | 296 | 0.0 | 1.6 | 0.00 | 0.00 | 0.00 | 63 | 1015.5 |
| 20260503054708 | 2 | 290 | 1.6 | 1.6 | 0.00 | 0.00 | 0.00 | 64 | 1015.5 |
| 20260503054205 | 2 | 310 | 0.0 | 3.2 | 0.00 | 0.00 | 0.00 | 64 | 1015.6 |
| 20260503053703 | 2 | 318 | 1.6 | 1.6 | 0.00 | 0.00 | 0.00 | 66 | 1015.8 |
| 20260503053201 | 1 | 302 | 0.0 | 1.6 | 0.00 | 0.00 | 0.00 | 68 | 1015.6 |
| 20260503052657 | 1 | 303 | 0.0 | 1.6 | 0.00 | 0.00 | 0.00 | 70 | 1015.8 |
| 20260503052153 | 1 | 298 | 0.0 | 1.6 | 0.00 | 0.00 | 0.00 | 72 | 1015.6 |
| 20260503051649 | 1 | 291 | 0.0 | 0.0 | 0.00 | 0.00 | 0.00 | 72 | 1015.6 |
| 20260503051147 | 1 | 281 | 0.0 | 1.6 | 0.00 | 0.00 | 0.00 | 74 | 1015.8 |
| 20260503050643 | 0 | 287 | 0.0 | 0.0 | 0.00 | 0.00 | 0.00 | 76 | 1015.5 |
| 20260503050140 | 0 | 287 | 0.0 | 0.0 | 0.00 | 0.00 | 0.00 | 77 | 1015.7 |
| 20260503045637 | 0 | 283 | 0.0 | 0.0 | 0.00 | 0.00 | 0.00 | 78 | 1015.7 |
| 20260503045134 | 0 | 288 | 0.0 | 0.0 | 0.00 | 0.00 | 0.00 | 81 | 1015.9 |
| 20260503044631 | 0 | 288 | 0.0 | 0.0 | 0.00 | 0.00 | 0.00 | 81 | 1015.6 |
| 20260503044129 | 0 | 287 | 0.0 | 0.0 | 0.00 | 0.00 | 0.00 | 82 | 1015.7 |
| 20260503043625 | 0 | 287 | 0.0 | 0.0 | 0.00 | 0.00 | 0.00 | 81 | 1015.8 |
| 20260503043122 | 0 | 287 | 0.0 | 0.0 | 0.00 | 0.00 | 0.00 | 81 | 1015.7 |
| 20260503042619 | 0 | 286 | 0.0 | 0.0 | 0.00 | 0.00 | 0.00 | 81 | 1015.7 |
| 20260503042115 | 0 | 286 | 0.0 | 0.0 | 0.00 | 0.00 | 0.00 | 81 | 1015.6 |
| 20260503041612 | 0 | 288 | 0.0 | 0.0 | 0.00 | 0.00 | 0.00 | 81 | 1015.9 |
| 20260503041110 | 0 | 288 | 0.0 | 0.0 | 0.00 | 0.00 | 0.00 | 81 | 1015.7 |
| 20260503040606 | 0 | 288 | 0.0 | 0.0 | 0.00 | 0.00 | 0.00 | 81 | 1015.8 |
| 20260503040103 | 0 | 288 | 0.0 | 0.0 | 0.00 | 0.00 | 0.00 | 82 | 1015.8 |
| 20260503035600 | 0 | 288 | 0.0 | 0.0 | 0.00 | 0.00 | 0.00 | 82 | 1016.0 |
| 20260503035058 | 0 | 288 | 0.0 | 0.0 | 0.00 | 0.00 | 0.00 | 82 | 1015.9 |
| 20260503034555 | 0 | 288 | 0.0 | 0.0 | 0.00 | 0.00 | 0.00 | 82 | 1016.0 |
| 20260503034052 | 0 | 288 | 0.0 | 0.0 | 0.00 | 0.00 | 0.00 | 82 | 1016.0 |
| 20260503033549 | 0 | 288 | 0.0 | 0.0 | 0.00 | 0.00 | 0.00 | 82 | 1015.9 |
| 20260503033047 | 0 | 288 | 0.0 | 0.0 | 0.00 | 0.00 | 0.00 | 82 | 1016.3 |
| 20260503032545 | 0 | 288 | 0.0 | 0.0 | 0.00 | 0.00 | 0.00 | 82 | 1015.9 |
| 20260503032043 | 0 | 287 | 0.0 | 0.0 | 0.00 | 0.00 | 0.00 | 82 | 1015.9 |
| 20260503031540 | 0 | 287 | 0.0 | 0.0 | 0.00 | 0.00 | 0.00 | 82 | 1015.8 |
| 20260503031038 | 0 | 287 | 0.0 | 1.6 | 0.00 | 0.00 | 0.00 | 82 | 1016.0 |
| 20260503030533 | 0 | 273 | 0.0 | 0.0 | 0.00 | 0.00 | 0.00 | 82 | 1015.9 |
| 20260503030031 | 0 | 273 | 0.0 | 0.0 | 0.00 | 0.00 | 0.00 | 82 | 1016.0 |
| 20260503025527 | 0 | 273 | 0.0 | 0.0 | 0.00 | 0.00 | 0.00 | 81 | 1015.9 |
| 20260503025025 | 1 | 273 | 0.0 | 0.0 | 0.00 | 0.00 | 0.00 | 81 | 1016.0 |
| 20260503024521 | 1 | 273 | 0.0 | 0.0 | 0.00 | 0.00 | 0.00 | 81 | 1016.3 |
| 20260503024018 | 1 | 273 | 0.0 | 0.0 | 0.00 | 0.00 | 0.00 | 80 | 1016.0 |
| 20260503023515 | 1 | 273 | 0.0 | 0.0 | 0.00 | 0.00 | 0.00 | 80 | 1016.2 |
| 20260503023012 | 1 | 273 | 0.0 | 0.0 | 0.00 | 0.00 | 0.00 | 79 | 1016.3 |
| 20260503022508 | 1 | 273 | 0.0 | 0.0 | 0.00 | 0.00 | 0.00 | 78 | 1016.2 |
| 20260503022003 | 1 | 273 | 0.0 | 0.0 | 0.00 | 0.00 | 0.00 | 76 | 1016.2 |
| 20260503021500 | 1 | 273 | 0.0 | 0.0 | 0.00 | 0.00 | 0.00 | 76 | 1016.2 |
| 20260503020957 | 1 | 273 | 0.0 | 0.0 | 0.00 | 0.00 | 0.00 | 76 | 1016.2 |
| 20260503020455 | 2 | 273 | 0.0 | 0.0 | 0.00 | 0.00 | 0.00 | 75 | 1016.3 |
| 20260503015951 | 2 | 273 | 0.0 | 0.0 | 0.00 | 0.00 | 0.00 | 75 | 1016.0 |
| 20260503015448 | 2 | 273 | 0.0 | 0.0 | 0.00 | 0.00 | 0.00 | 73 | 1016.2 |
| 20260503014944 | 2 | 274 | 0.0 | 0.0 | 0.00 | 0.00 | 0.00 | 72 | 1016.0 |
| 20260503014441 | 2 | 264 | 0.0 | 1.6 | 0.00 | 0.00 | 0.00 | 71 | 1015.9 |
| 20260503013939 | 3 | 236 | 0.0 | 0.0 | 0.00 | 0.00 | 0.00 | 69 | 1015.8 |
| 20260503013436 | 3 | 236 | 0.0 | 0.0 | 0.00 | 0.00 | 0.00 | 68 | 1015.8 |
| 20260503012933 | 3 | 236 | 0.0 | 0.0 | 0.00 | 0.00 | 0.00 | 67 | 1016.0 |
| 20260503012431 | 3 | 236 | 0.0 | 1.6 | 0.00 | 0.00 | 0.00 | 67 | 1016.0 |
| 20260503011927 | 4 | 231 | 0.0 | 1.6 | 0.00 | 0.00 | 0.00 | 64 | 1015.8 |
| 20260503011424 | 4 | 218 | 0.0 | 0.0 | 0.00 | 0.00 | 0.00 | 60 | 1015.8 |
| 20260503010921 | 5 | 218 | 0.0 | 0.0 | 0.00 | 0.00 | 0.00 | 59 | 1015.9 |
| 20260503010418 | 5 | 218 | 0.0 | 0.0 | 0.00 | 0.00 | 0.00 | 57 | 1015.9 |
| 20260503005915 | 5 | 218 | 0.0 | 0.0 | 0.00 | 0.00 | 0.00 | 57 | 1015.6 |
| 20260503005412 | 5 | 218 | 0.0 | 0.0 | 0.00 | 0.00 | 0.00 | 57 | 1015.7 |
| 20260503004909 | 6 | 217 | 1.6 | 1.6 | 0.00 | 0.00 | 0.00 | 57 | 1015.6 |
| 20260503004406 | 6 | 240 | 0.0 | 0.0 | 0.00 | 0.00 | 0.00 | 56 | 1015.6 |
| 20260503003904 | 6 | 241 | 0.0 | 0.0 | 0.00 | 0.00 | 0.00 | 53 | 1015.6 |
| 20260503003400 | 6 | 241 | 0.0 | 0.0 | 0.00 | 0.00 | 0.00 | 51 | 1015.6 |
| 20260503002857 | 6 | 240 | 0.0 | 1.6 | 0.00 | 0.00 | 0.00 | 51 | 1015.8 |
| 20260503002355 | 7 | 254 | 0.0 | 1.6 | 0.00 | 0.00 | 0.00 | 49 | 1015.6 |
| 20260503001850 | 7 | 277 | 1.6 | 1.6 | 0.00 | 0.00 | 0.00 | 48 | 1015.8 |
| 20260503001347 | 7 | 200 | 1.6 | 3.2 | 0.00 | 0.00 | 0.00 | 48 | 1015.5 |
| 20260503000845 | 7 | 227 | 0.0 | 1.6 | 0.00 | 0.00 | 0.00 | 48 | 1015.7 |
| 20260503000342 | 7 | 273 | 0.0 | 1.6 | 0.00 | 0.00 | 0.00 | 48 | 1015.6 |
| 20260502235838 | 7 | 295 | 3.2 | 4.8 | 0.00 | 0.00 | 0.00 | 45 | 1015.7 |
| 20260502235336 | 8 | 324 | 0.0 | 1.6 | 0.00 | 0.00 | 0.00 | 44 | 1015.6 |
| 20260502234833 | 8 | 298 | 1.6 | 3.2 | 0.00 | 0.00 | 0.00 | 44 | 1015.7 |
| 20260502234330 | 8 | 259 | 1.6 | 4.8 | 0.00 | 0.00 | 0.00 | 44 | 1015.7 |
| 20260502233826 | 8 | 291 | 1.6 | 4.8 | 0.00 | 0.00 | 0.00 | 44 | 1015.5 |
| 20260502233322 | 8 | 282 | 4.8 | 8.0 | 0.00 | 0.00 | 0.00 | 43 | 1015.7 |
| 20260502232819 | 8 | 265 | 3.2 | 3.2 | 0.00 | 0.00 | 0.00 | 44 | 1015.6 |
| 20260502232316 | 8 | 293 | 4.8 | 8.0 | 0.00 | 0.00 | 0.00 | 43 | 1015.9 |
| 20260502231812 | 8 | 302 | 3.2 | 8.0 | 0.00 | 0.00 | 0.00 | 43 | 1015.7 |
| 20260502231310 | 8 | 292 | 1.6 | 4.8 | 0.00 | 0.00 | 0.00 | 43 | 1015.8 |
| 20260502230808 | 8 | 309 | 4.8 | 4.8 | 0.00 | 0.00 | 0.00 | 44 | 1015.8 |
| 20260502230306 | 8 | 285 | 1.6 | 3.2 | 0.00 | 0.00 | 0.00 | 44 | 1015.8 |
| 20260502225802 | 8 | 338 | 1.6 | 8.0 | 0.00 | 0.00 | 0.00 | 44 | 1015.8 |
| 20260502225259 | 8 | 323 | 6.4 | 8.0 | 0.00 | 0.00 | 0.00 | 42 | 1015.7 |
| 20260502224755 | 8 | 299 | 4.8 | 11.3 | 0.00 | 0.00 | 0.00 | 42 | 1015.7 |
| 20260502224252 | 8 | 250 | 3.2 | 11.3 | 0.00 | 0.00 | 0.00 | 42 | 1015.7 |
| 20260502223749 | 8 | 285 | 4.8 | 9.7 | 0.00 | 0.00 | 0.00 | 43 | 1015.8 |
| 20260502223248 | 8 | 338 | 4.8 | 9.7 | 0.00 | 0.00 | 0.00 | 43 | 1015.8 |
| 20260502222745 | 8 | 284 | 3.2 | 8.0 | 0.00 | 0.00 | 0.00 | 41 | 1015.5 |
| 20260502222242 | 8 | 326 | 4.8 | 4.8 | 0.00 | 0.00 | 0.00 | 42 | 1015.8 |
| 20260502221738 | 8 | 303 | 1.6 | 4.8 | 0.00 | 0.00 | 0.00 | 43 | 1015.7 |
| 20260502221234 | 8 | 290 | 3.2 | 11.3 | 0.00 | 0.00 | 0.00 | 42 | 1015.9 |
| 20260502220731 | 8 | 291 | 11.3 | 12.9 | 0.00 | 0.00 | 0.00 | 43 | 1015.9 |
| 20260502220227 | 8 | 238 | 6.4 | 9.7 | 0.00 | 0.00 | 0.00 | 42 | 1015.6 |
| 20260502215724 | 8 | 297 | 6.4 | 14.5 | 0.00 | 0.00 | 0.00 | 41 | 1015.8 |
| 20260502215221 | 8 | 320 | 6.4 | 12.9 | 0.00 | 0.00 | 0.00 | 41 | 1015.9 |
| 20260502214718 | 8 | 240 | 8.0 | 12.9 | 0.00 | 0.00 | 0.00 | 39 | 1015.8 |
| 20260502214215 | 9 | 8 | 9.7 | 14.5 | 0.00 | 0.00 | 0.00 | 40 | 1015.9 |
| 20260502213713 | 8 | 325 | 4.8 | 8.0 | 0.00 | 0.00 | 0.00 | 42 | 1016.3 |
| 20260502213210 | 8 | 331 | 9.7 | 11.3 | 0.00 | 0.00 | 0.00 | 41 | 1015.8 |
| 20260502212708 | 8 | 293 | 4.8 | 8.0 | 0.00 | 0.00 | 0.00 | 42 | 1016.0 |
| 20260502212206 | 8 | 313 | 4.8 | 11.3 | 0.00 | 0.00 | 0.00 | 41 | 1015.7 |
| 20260502211702 | 8 | 347 | 8.0 | 9.7 | 0.00 | 0.00 | 0.00 | 41 | 1015.8 |
| 20260502211159 | 8 | 5 | 4.8 | 9.7 | 0.00 | 0.00 | 0.00 | 43 | 1016.3 |
| 20260502210656 | 8 | 331 | 3.2 | 8.0 | 0.00 | 0.00 | 0.00 | 41 | 1015.8 |
| 20260502210153 | 8 | 279 | 6.4 | 8.0 | 0.00 | 0.00 | 0.00 | 43 | 1016.0 |
| 20260502205650 | 8 | 285 | 8.0 | 12.9 | 0.00 | 0.00 | 0.00 | 41 | 1016.0 |
| 20260502205147 | 8 | 247 | 1.6 | 8.0 | 0.00 | 0.00 | 0.00 | 41 | 1015.9 |
| 20260502204643 | 8 | 275 | 6.4 | 9.7 | 0.00 | 0.00 | 0.00 | 42 | 1015.9 |
| 20260502204141 | 8 | 275 | 3.2 | 8.0 | 0.00 | 0.00 | 0.00 | 44 | 1016.0 |
| 20260502203638 | 7 | 336 | 6.4 | 11.3 | 0.00 | 0.00 | 0.00 | 43 | 1016.2 |
| 20260502203137 | 7 | 295 | 3.2 | 8.0 | 0.00 | 0.00 | 0.00 | 44 | 1016.4 |
| 20260502202631 | 7 | 324 | 8.0 | 12.9 | 0.00 | 0.00 | 0.00 | 42 | 1016.3 |
| 20260502202129 | 7 | 327 | 9.7 | 14.5 | 0.00 | 0.00 | 0.00 | 41 | 1016.2 |
| 20260502201625 | 8 | 258 | 3.2 | 11.3 | 0.00 | 0.00 | 0.00 | 42 | 1016.4 |
| 20260502201122 | 8 | 271 | 6.4 | 14.5 | 0.00 | 0.00 | 0.00 | 40 | 1016.2 |
| 20260502200618 | 8 | 326 | 6.4 | 8.0 | 0.00 | 0.00 | 0.00 | 42 | 1016.4 |
| 20260502200115 | 7 | 296 | 6.4 | 8.0 | 0.00 | 0.00 | 0.00 | 44 | 1016.4 |
| 20260502195614 | 8 | 328 | 6.4 | 12.9 | 0.00 | 0.00 | 0.00 | 41 | 1016.4 |
| 20260502195109 | 8 | 327 | 3.2 | 11.3 | 0.00 | 0.00 | 0.00 | 41 | 1016.5 |
| 20260502194606 | 8 | 303 | 8.0 | 11.3 | 0.00 | 0.00 | 0.00 | 42 | 1016.7 |
| 20260502194102 | 7 | 110 | 1.6 | 8.0 | 0.00 | 0.00 | 0.00 | 44 | 1016.8 |
| 20260502193600 | 7 | 300 | 3.2 | 11.3 | 0.00 | 0.00 | 0.00 | 42 | 1016.7 |